Location: Borojevi?i
(45.0486°N, 16.2297°E)
Time: 04:39:32
(UTC+00:00)

Cosmos 1867 - Pass Details

Date: 08 August 2020
Orbit: 777 x 798 km, 65.0° (Epoch: 23 September)

Event Time Altitude Azimuth Distance (km) Brightness Sun altitude
Rises 19:16:26 0° 181° (S) 3,263 6.4 -10.7°
Reaches altitude 10° 19:19:08 10° 170° (S) 2,343 5.6 -11.1°
Maximum altitude 19:23:39 28° 112° (ESE) 1,451 4.4 -11.8°
Drops below altitude 10° 19:28:12 10° 55° (NE) 2,368 5.9 -12.4°
Sets 19:30:56 0° 44° (NE) 3,305 6.7 -12.8°
